Reflectivity
-20 -20 -20 -20 -20 -20 -20 -20 -20 -20 -20 -20 -20 -20 -20 -20 -20 -20 -20 -20 -20 -20 -20 -20 -20 4 -20 -20 -20 -20 -20 -20 -20 -20 -20 -20 -20 -20 3 -20 -20 -16 4 6 -13 -20 -2 -20 -12
-20 -20 9 -10 -20 -20 -20 -20 -20 -20 -20 -20 -20 -20 -20 -20 -20 -20 -20 -20 -20 -20 -20 -9 -20 -20 3 -20 -20 -13 -20 -20 -20 -20 -20 -20 -20 -20 -20 -20 -20 -20 -1 3 -6 -16 -20 -20 -20
-20 -20 -20 -20 -20 -20 -20 -20 -20 -20 -20 -20 -20 -20 -20 -20 -20 -20 -20 -20 -20 -20 -20 4 -20 -20 -20 -20 -20 -20 -14 -20 -20 -20 -20 -20 -20 -20 -20 -20 -20 -20 -14 -20 -20 -20 -20 -20 -20
-20 -20 -20 -20 -20 -20 -20 -20 -20 -20 -20 -20 -20 -20 -20 -20 -20 -20 -20 -20 -20 -20 -20 -20 -20 -20 -20 -20 -20 -10 -20 -20 -20 -20 -20 -20 -20 -20 -20 -20 -20 -20 -20 -20 -20 -20 -20 -20 -20
-20 -20 -20 -20 -20 -20 -20 -20 -20 -20 -20 -20 -20 -20 -20 -20 -20 -20 -20 -20 -20 -20 -20 -20 -5 -20 -20 -20 -20 -5 5 -20 -20 -20 -20 -20 -20 -20 -20 -20 -20 -20 -20 -20 -20 -20 -20 -20 -8
-20 -20 -20 -20 -20 -20 -20 -20 -20 -20 -20 -20 -20 -20 -20 -20 -20 -20 -20 -20 -20 -20 -20 -20 -20 -20 -14 5 -20 -20 -6 -20 -20 -20 -20 -20 -20 -20 -20 -20 -20 -20 -20 -20 -20 -20 -20 -20 -20
-20 -20 -20 -20 -20 -20 -20 -20 -20 -20 -20 -20 -20 -20 -20 -20 -20 -20 -20 -20 -20 -20 -20 -20 -20 -20 -20 -20 -20 -20 -11 9 2 -20 -20 -20 -20 -20 -20 -20 -20 -20 -20 -20 -20 -20 -20 -20 -20
-20 -20 -20 -20 -20 -20 -20 -20 -20 -20 -20 -20 -20 -20 -20 -20 -20 -20 -20 -20 -20 -20 -20 -20 23 -20 -20 -18 7 6 26 -19 12 -5 -20 -20 -20 18 -20 -20 -20 -20 -20 -20 -20 -20 -20 -20 -20
-20 -20 -20 -20 -20 -20 -20 -20 -20 -20 -20 -20 -20 -20 -20 -20 -20 -20 -20 -20 -20 -20 -20 -20 -20 -10 -13 -19 -17 -20 -20 1 -20 -20 -18 -20 -20 -6 -10 -20 -20 -10 -1 -11 -20 -20 -20 -20 -20
-20 -20 -20 -20 -20 -20 -20 -20 -20 -20 -20 -20 -20 -20 -20 -20 -20 -20 -20 -20 -20 -20 -20 -20 -20 -20 -20 10 12 5 2 -14 -10 -4 -6 10 -15 -20 -10 -20 7 10 13 -3 -6 -20 -20 -20 -20
-20 -20 -20 -20 -20 -20 -20 -20 -20 -20 -20 -20 -20 -20 -20 -20 -20 -20 -20 -20 -20 -20 -20 -20 -20 -20 -20 -20 -17 -18 -20 -20 -20 -20 -20 -20 -20 -18 -20 -8 -16 -3 14 2 4 2 -17 -20 -20
-20 -20 -20 -20 -20 -20 -20 -20 -20 -20 -20 -20 -20 -20 -20 -20 -20 -20 -20 -20 -20 -20 -20 -20 -20 -20 -20 -20 -20 -20 -20 -20 -20 -20 -20 -20 -20 -20 -20 -20 -20 -20 -20 -20 -20 -17 3 -13 -20
-20 -20 -20 -20 -20 -20 -20 -20 -20 -20 -20 -20 -20 -20 -20 -20 -20 -20 -20 -20 -20 -20 -20 -20 -20 -20 -20 -20 -20 -20 -20 -20 -20 -20 -20 -20 -20 -20 -20 -20 -20 -20 -20 -20 -20 -20 -20 -20 -20
-20 -20 -20 -20 -20 -20 -20 -20 -20 -20 -20 -20 -20 -20 -20 -20 -20 -20 -20 -20 -20 -20 -20 -20 -20 -20 -20 -20 -20 -20 -20 -20 -20 -20 -20 -20 -20 -20 -20 -20 -20 -20 -20 -20 -20 -20 -20 -20 -20
-20 -20 -20 -20 -20 -20 -20 -20 -20 -20 -20 -20 -20 -20 -20 -20 -20 -20 -20 -20 -20 -20 -20 -20 -20 -20 -20 -20 -20 -20 -20 -20 -20 -20 -20 -20 -20 -20 -20 -20 -20 -20 -20 -20 -20 -20 -20 -20 -20
-20 -20 -20 -20 -20 -20 -20 -20 -20 -20 -20 -20 -20 -20 -20 -20 -20 -20 -20 -20 -20 -20 -20 -20 -20 -20 -20 -20 -20 -20 -20 -20 -20 -20 -20 -20 -20 -20 -20 -20 -20 -20 -20 -20 -20 -20 -20 -20 -20
-20 -20 -20 -20 -20 -20 -20 -20 -20 -20 -20 -20 -20 -20 -20 -20 -20 -20 -20 -20 -20 -20 -20 -20 -20 -20 -20 -20 -20 -20 -20 -20 -20 -20 -20 -20 -20 -20 -20 -20 -20 -20 -20 -20 -20 -20 -20 -20 -20
-18 -20 -20 -20 -20 -20 -20 -20 -20 -20 -20 -20 -20 -20 -20 -20 -20 -20 -20 -20 -20 -20 -20 -20 -20 -20 -20 -20 -20 -20 -20 -20 -20 -20 -20 -20 -20 -20 -20 -20 -20 -20 -20 -20 -20 -20 -20 -20 -20
-20 -20 -20 -20 -20 -20 -20 -20 -20 -20 -20 -20 -20 -20 -20 -20 -20 -20 -20 -20 -20 -20 -20 -20 -20 -20 -20 -20 -20 -20 -20 -20 -20 -20 -20 -20 -20 -20 -20 -20 -20 -20 -20 -20 -20 -20 -20 -20 -20
-14 -20 -20 -20 -20 -20 -20 -20 -20 -20 -20 -20 -20 -20 -20 -20 -20 -20 -20 -20 -20 -20 -20 -20 -20 -20 -20 -20 -20 -20 -20 -20 -20 -20 -20 -20 -20 -20 -20 -20 -20 -20 -20 -20 -20 -20 -20 -20 -20
-20 -20 -20 -20 -20 -20 -20 -20 -20 -20 -20 -20 -20 -20 -20 -20 -20 -20 -20 -20 -20 -20 -20 -20 -20 -20 -20 -20 -20 -20 -20 -20 -20 -20 -20 -20 -20 -20 -20 -20 -20 -20 -20 -20 -20 -20 -20 -20 -20
-20 -20 -20 -20 -20 -20 -20 -20 -17 -20 -20 -20 -20 -20 -20 -20 -20 -20 -20 -20 -20 -20 -20 -20 -20 -20 -20 -20 -20 -20 -20 -20 -20 -20 -20 -20 -20 -20 -20 -20 -20 -20 -20 -20 -20 -20 -20 -20 -20
-20 -20 -20 -20 -20 -20 -20 -20 -18 -20 -20 -20 -20 -20 -20 -20 -20 -20 -20 -20 -20 -20 -20 -20 -20 -20 -20 -20 -20 -20 -20 -20 -20 -20 -20 -20 -20 -20 -20 -20 -20 -20 -20 -20 -20 -20 -20 -20 -20
-20 -20 -20 -20 -20 -20 -20 -20 -20 -20 -20 -20 -20 -20 -20 -20 -20 -20 -20 -20 -20 -20 -20 -20 -20 -20 -20 -20 -20 -20 -20 -20 -20 -20 -20 -20 -20 -20 -20 -20 -20 -20 -20 -20 -20 -20 -20 -20 -20
-20 -20 -20 -20 -20 -20 -20 -20 -20 -20 -20 -20 -20 -20 -20 -20 -20 -20 -20 -20 -20 -20 -20 -20 -20 -20 -20 -20 -20 -20 -20 -20 -20 -20 -20 -20 -20 -20 -20 -20 -20 -20 -20 -20 -20 -20 -20 -20 -20
-20 -20 -20 -20 -20 -20 -20 -20 -20 -20 -20 -20 -20 -20 -20 -20 -20 -20 -20 -20 -20 -20 -20 -20 -20 -20 -20 -20 -20 -20 -20 -20 -20 -20 -20 -20 -20 -20 -20 -20 -20 -20 -20 -20 -20 -20 -20 -20 -20
-20 -20 -20 -20 -20 -20 -20 -20 -20 -20 -20 -20 -20 -20 -20 -20 -20 -20 -20 -20 -20 -20 -20 -20 -20 -20 -20 -20 -20 -20 -20 -20 -20 -20 -20 -20 -20 -20 -20 -20 -20 -20 -20 -20 -20 -20 -20 -20 -20
-20 -20 -20 -20 -20 -20 -20 -20 -20 -20 -20 -20 -20 -20 -20 -20 -20 -20 -20 -20 -20 -20 -20 -20 -20 -20 -20 -20 -20 -20 -20 -20 -20 -20 -20 -20 -20 -20 -20 -20 -20 -20 -20 -20 -20 -20 -20 -20 -20
-20 -20 -20 -20 -20 -20 -20 -20 -20 -20 -20 -20 -20 -20 -20 -20 -20 -20 -20 -20 -20 -20 -20 -20 -20 -20 -20 -20 -20 -20 -20 -20 -20 -20 -20 -20 -20 -20 -20 -20 -20 -20 -20 -20 -20 -20 -20 -20 -20
-20 -20 -20 -20 -20 -20 -20 -20 -20 -20 -20 -20 -20 -20 -20 -20 -20 -20 -20 -20 -20 -20 -20 -20 -20 -20 -20 -20 -20 -20 -20 -20 -20 -20 -20 -20 -20 -20 -20 -20 -20 -20 -20 -20 -20 -20 -20 -20 -20
Wind_Speed
6 4 2 4 6 6 2 2 2 4 3 4 2 8 7 3 2 4 3 6 4 7 6 6 8 8 10 9 8 8 8 8 7 6 7 9 9 10 12 11 12 13 12 12 13 12 10 9 9
2 1 3 3 7 5 4 4 2 1 6 5 6 3 5 3 2 4 2 6 7 6 4 4 7 8 9 8 7 5 8 6 6 5 6 6 7 9 9 10 10 9 9 12 11 11 8 8 7
0 3 4 5 4 4 4 0 1 2 2 1 4 4 2 2 2 4 4 8 6 5 5 5 8 6 8 7 7 6 6 5 5 5 6 5 5 7 7 8 8 8 8 9 10 10 9 8 6
2 5 5 6 3 1 2 4 4 4 1 6 2 6 2 1 1 3 6 7 6 5 6 7 7 8 7 6 5 6 5 4 4 4 5 5 5 5 6 7 7 7 8 9 9 9 9 8 8
4 4 5 4 2 1 1 1 3 2 1 3 2 4 3 2 4 5 6 6 6 4 4 4 8 7 6 6 4 5 5 4 3 4 3 4 4 4 4 5 6 6 7 8 9 9 9 10 9
4 4 5 3 2 0 1 4 3 2 1 1 4 4 2 4 3 5 7 6 6 5 3 4 7 8 6 6 6 4 4 4 4 3 2 2 2 2 3 4 4 5 7 8 9 9 9 9 10
6 5 5 6 6 2 5 6 4 5 3 1 3 3 2 7 1 7 7 6 6 4 3 2 3 2 1 5 6 5 5 4 5 5 3 1 2 2 2 3 4 4 6 8 8 9 9 10 10
5 6 5 3 6 5 4 3 4 2 2 1 1 4 4 1 5 9 9 8 7 6 4 2 4 5 5 5 11 11 10 12 13 13 15 13 13 11 7 7 6 6 7 7 8 8 9 10 10
3 6 3 7 7 4 5 4 2 1 5 2 3 2 3 5 4 11 11 9 6 8 6 5 6 6 6 7 10 12 15 15 14 12 15 10 5 7 9 12 11 10 11 10 10 10 10 10 9
5 5 9 6 6 4 5 3 6 4 3 3 3 5 6 6 4 11 10 7 5 5 5 6 6 6 5 9 8 7 7 7 8 8 8 5 7 8 9 12 15 15 16 13 11 12 12 9 4
3 5 5 3 3 4 6 3 2 8 3 6 8 7 4 6 7 8 6 6 6 3 5 6 7 7 8 7 5 5 4 5 6 9 8 6 6 6 6 5 6 6 11 5 7 7 4 6 4
3 2 4 3 3 4 5 6 2 3 1 3 9 7 6 9 7 8 7 8 6 7 5 6 6 8 7 5 5 5 5 4 5 5 7 5 4 5 5 5 6 5 5 6 7 5 7 7 6
3 2 5 5 6 5 6 3 3 4 3 7 9 7 9 8 6 5 6 6 6 8 5 6 6 7 6 8 5 5 5 5 4 5 6 5 5 5 4 4 4 4 5 5 5 5 5 6 7
3 3 4 2 3 3 3 2 0 4 6 7 9 9 8 10 8 6 5 6 6 7 6 5 7 7 7 6 6 5 4 4 5 5 5 6 4 4 5 5 5 5 5 4 4 4 5 5 5
5 1 2 1 3 3 5 2 7 5 7 9 8 8 8 8 8 10 9 8 9 5 7 7 7 6 7 7 6 4 3 4 4 4 5 6 5 5 4 4 4 4 4 6 5 5 4 5 5
5 5 3 0 3 1 2 8 2 7 10 9 9 8 8 7 9 7 8 7 7 7 8 6 5 6 7 6 4 4 3 4 3 3 3 5 5 6 5 4 4 4 4 4 4 4 4 4 4
6 3 2 8 4 3 3 6 1 5 7 9 9 8 8 7 6 6 7 8 8 8 8 7 6 7 7 6 4 4 4 3 2 2 3 4 4 4 4 3 3 4 3 4 3 3 1 3 5
6 3 3 5 1 1 2 12 5 5 8 11 9 8 8 8 9 8 9 8 7 7 5 6 5 6 5 4 3 2 1 1 1 2 2 3 3 4 3 3 4 3 3 4 3 3 2 3 4
5 4 3 2 2 3 6 9 12 8 7 9 9 10 9 9 7 6 7 6 6 4 5 5 6 4 3 1 2 1 0 1 1 2 3 3 3 4 4 3 4 3 3 4 3 2 3 3 2
3 3 3 3 1 3 4 12 12 5 7 10 13 11 11 7 7 7 7 7 7 6 7 6 5 5 3 2 2 2 1 2 2 2 2 2 4 4 3 3 4 4 4 5 5 2 3 2 1
2 3 2 4 4 1 6 8 5 2 2 3 6 5 6 12 11 8 9 8 6 8 8 8 7 6 4 3 2 1 1 1 2 2 2 3 4 4 4 4 4 5 3 4 4 3 2 2 3
1 1 2 2 4 3 4 7 6 5 8 4 5 7 9 10 7 6 7 8 9 9 6 6 6 5 4 5 2 3 2 2 2 2 2 4 4 5 5 5 5 5 4 5 4 4 3 3 4
2 4 4 3 3 3 3 3 9 5 6 8 7 6 7 8 9 10 10 13 6 5 7 6 5 5 4 4 2 2 3 2 2 2 4 4 5 5 6 6 6 6 4 5 6 6 6 4 4
6 5 7 5 3 2 2 4 6 4 5 8 5 5 6 7 7 7 4 3 4 5 5 4 5 4 3 2 2 4 5 3 2 3 4 4 4 5 6 6 6 6 6 6 6 6 7 6 5
5 5 4 5 4 6 1 2 7 5 4 5 9 9 5 5 6 7 7 6 6 6 5 3 4 3 1 1 1 2 1 1 3 4 4 6 3 3 6 6 6 6 6 6 7 6 6 6 6
2 6 6 4 3 4 1 5 2 3 5 5 4 3 2 1 2 4 5 3 3 3 3 4 3 2 2 3 1 1 1 2 3 4 4 4 4 5 7 8 7 7 8 8 8 6 8 9 8
2 2 2 6 3 2 3 5 4 7 8 8 10 10 8 7 6 5 4 2 1 2 2 2 2 4 4 2 2 3 3 4 5 7 5 4 6 6 7 7 9 12 12 10 10 9 11 10 9
2 5 4 3 2 4 5 4 4 5 5 7 10 9 7 6 7 5 4 2 2 4 4 6 5 4 1 1 3 3 5 5 5 5 7 7 8 8 9 10 10 11 11 10 10 9 11 11 9
2 0 6 4 4 4 2 6 5 2 4 6 7 8 8 8 8 7 5 6 6 5 5 4 4 2 2 4 4 5 6 6 6 6 7 8 8 9 10 11 11 12 12 11 11 12 13 14 12
2 4 5 6 4 1 4 8 1 3 4 4 6 6 6 6 6 5 5 4 4 3 3 2 0 2 4 5 5 6 6 7 7 7 8 9 11 10 11 11 12 13 13 13 14 15 14 15 14
Wind_Direction
332 327 148 48 56 64 356 315 291 106 56 339 22 97 117 87 85 162 299 182 149 156 176 165 154 130 123 106 103 100 88 74 66 62 54 42 54 47 52 50 46 41 47 46 47 42 54 62 70
341 252 43 85 81 70 286 299 82 81 145 139 75 82 58 82 106 123 129 187 167 158 133 132 152 141 121 111 102 67 100 80 68 73 63 48 45 53 44 43 38 35 33 35 38 37 54 65 64
194 43 79 84 107 149 185 216 121 87 58 185 104 60 108 77 32 171 229 164 137 121 120 158 150 139 133 123 114 98 87 78 71 73 66 52 49 44 37 38 35 30 22 25 25 29 35 44 43
102 16 36 76 96 188 189 149 143 146 85 47 103 74 36 77 209 188 168 112 122 143 152 173 163 158 138 126 124 108 98 92 83 83 74 59 46 41 28 25 20 19 12 10 11 10 13 20 17
37 58 59 72 7 69 29 133 140 116 44 29 20 141 95 351 357 113 103 113 129 150 172 160 149 151 147 134 123 130 117 95 86 77 73 74 58 41 29 19 16 15 8 360 358 357 356 5 7
42 96 70 146 202 172 2 128 106 90 300 79 96 118 116 318 78 101 104 112 132 150 168 176 160 163 164 151 138 151 152 105 77 80 78 71 66 36 29 21 16 13 7 358 354 349 346 347 353
112 82 156 150 178 245 190 159 176 168 141 95 153 107 134 7 325 98 89 86 104 102 139 188 147 135 107 111 118 108 84 85 57 26 352 8 6 345 4 1 351 358 1 356 350 349 342 337 338
106 91 112 197 186 222 184 112 127 117 159 326 358 189 157 73 89 85 74 81 79 51 24 74 69 76 67 48 73 62 64 67 56 49 47 50 31 12 0 7 343 347 344 343 348 346 343 337 333
116 70 165 197 158 213 167 133 48 104 104 71 8 75 114 112 114 84 77 52 41 57 40 65 75 74 70 65 65 62 61 57 52 48 53 40 29 35 37 35 30 14 0 351 351 352 346 337 345
87 114 208 188 181 181 163 139 148 124 95 57 51 39 81 75 91 107 107 96 67 41 44 56 67 67 73 82 66 60 60 54 44 42 34 42 45 37 41 34 36 29 30 25 18 8 4 356 346
144 170 169 177 155 129 128 104 98 124 219 197 177 154 114 101 82 91 93 95 112 77 54 42 67 65 68 72 67 59 54 48 43 37 34 25 36 32 23 31 18 17 17 15 19 13 9 4 357
106 70 133 133 103 101 133 122 94 187 227 254 153 139 116 124 124 132 117 116 112 95 73 58 67 79 70 78 72 73 66 49 44 39 39 40 36 28 24 28 14 11 2 8 11 8 357 354 350
99 120 65 84 87 89 116 90 219 211 112 106 122 120 136 130 126 95 110 104 119 101 101 82 88 87 85 82 80 71 67 64 55 45 39 45 45 41 26 19 20 15 1 8 360 5 359 348 348
69 66 101 105 123 118 123 131 65 185 142 125 138 148 152 150 152 118 131 135 121 124 119 119 93 94 91 85 85 84 77 69 55 49 43 51 64 52 35 16 7 10 6 354 357 348 342 335 338
95 23 45 146 167 142 132 290 235 161 153 154 158 160 162 169 163 168 170 156 152 154 143 135 120 113 101 104 98 91 81 71 59 49 46 53 62 55 40 25 13 359 354 354 355 347 343 341 332
62 47 41 281 141 32 129 268 323 162 153 176 176 180 176 183 186 182 169 159 170 144 157 168 132 123 111 108 108 105 93 73 59 48 38 39 47 40 35 25 12 347 356 353 353 343 336 328 324
5 203 214 320 195 121 151 262 181 171 172 191 192 192 190 186 187 202 192 177 172 170 160 149 146 133 126 117 103 93 94 75 62 54 44 27 38 41 47 23 347 353 356 3 353 326 328 311 313
209 198 238 239 208 89 223 261 241 194 190 207 198 199 198 192 201 194 194 187 175 172 160 145 143 135 114 103 100 83 80 55 69 57 49 38 28 31 31 10 0 4 358 350 352 310 299 265 289
138 168 221 238 212 171 238 267 270 206 213 216 208 206 205 197 213 194 199 181 173 175 167 168 160 168 141 149 143 88 120 316 331 5 11 30 23 14 18 2 352 0 353 314 306 292 301 299 312
149 167 256 282 105 167 320 276 266 189 224 211 209 205 201 179 200 199 196 187 194 185 195 194 195 183 190 147 162 151 177 245 264 299 329 21 7 0 346 346 327 332 330 331 328 332 307 281 328
141 174 210 237 337 72 331 293 321 33 336 277 240 191 178 188 189 198 204 200 196 207 202 202 202 193 190 173 113 61 12 340 327 329 333 345 330 317 315 310 300 303 298 294 291 282 243 270 295
240 298 117 71 52 262 20 286 304 337 323 313 284 196 187 186 188 189 196 207 208 216 205 214 211 205 204 174 154 186 202 225 235 249 273 301 287 294 293 287 284 281 283 279 271 260 237 196 249
172 66 61 64 86 16 336 91 272 345 348 342 333 242 222 204 192 196 200 212 210 180 209 215 209 220 212 181 184 203 229 239 259 263 298 302 308 303 300 297 295 285 274 262 257 269 247 220 215
143 75 45 52 76 359 300 142 294 335 303 309 324 302 231 210 214 228 232 164 202 195 215 211 200 221 221 196 213 220 235 239 305 312 305 296 287 293 297 295 286 275 268 265 264 261 250 255 244
72 60 336 348 11 225 314 99 249 306 320 297 303 307 247 210 208 231 235 215 211 213 220 205 190 214 193 128 175 202 232 294 279 280 275 295 296 289 291 292 283 283 274 269 266 260 255 253 246
93 144 156 242 225 276 88 238 254 307 330 331 325 331 121 213 256 279 309 306 294 276 187 199 175 204 77 89 66 12 351 279 270 270 289 282 272 266 272 277 273 271 269 273 270 262 263 260 253
160 157 170 103 24 39 273 297 328 3 4 12 29 42 27 16 15 12 9 58 122 134 160 180 145 98 76 67 3 318 304 316 308 304 290 271 270 280 280 273 276 280 276 268 265 271 272 263 257
114 155 70 13 212 267 297 284 236 350 337 9 19 21 13 20 29 17 19 44 79 76 77 76 86 102 105 344 312 303 311 312 307 308 291 286 285 275 278 277 274 276 272 265 262 271 268 262 257
70 41 54 113 126 174 284 273 217 265 352 9 29 33 28 32 32 22 27 39 62 73 83 95 87 75 341 315 305 307 309 309 298 281 279 278 276 271 272 281 283 283 280 273 267 269 270 264 260
177 183 144 123 221 89 144 272 280 25 358 33 45 37 30 43 35 43 54 66 68 82 93 100 61 316 305 304 307 304 301 291 284 276 271 273 279 284 285 285 285 285 280 274 267 270 272 265 267